Regional Weather Roundup
Issued by NWS

Home | Current Version | Previous Version | Graphics & Text | Print | Product List | Glossary On
Versions: 1 2 3 4 5 6 7 8 9 10 11 12 13 14 15 16 17 18 19 20 21 22 23 24 25 26 27 28 29 30 31 32 33 34 35 36 37 38 39 40 41 42 43 44 45 46 47 48 49 50
328
ASUS44 KLIX 220301
RWRLA
LOUISIANA WEATHER ROUNDUP
NATIONAL WEATHER SERVICE NEW ORLEANS LA
900 PM CST FRI NOV 21 2014

NOTE: "FAIR" INDICATES FEW OR NO CLOUDS BELOW 12,000 FEET WITH NO
      SIGNIFICANT WEATHER AND/OR OBSTRUCTIONS TO VISIBILITY.
      SKY/WX - SKY CONDITION AND SIGNIFICANT WEATHER.
      TMP - AIR TEMPERATURE.    DP   - DEWPOINT TEMPERATURE.
      RH  - RELATIVE HUMIDITY.  PRES - PRESSURE.
      HX  - HEAT INDEX.         WCI  - WIND CHILL INDEX.

*  THESE STATIONS ARE NOT NWS OR FAA STATIONS AND ARE NOT UNDER
   NWS QUALITY CONTROL.

LAZ040-048-061>063-065-066-069-220400-
SOUTHEAST LOUISIANA

CITY           SKY/WX    TMP DP  RH WIND       PRES   REMARKS
N.O. AUDUBON     N/A     58  53  81 MISG        N/A
N.O. INTL ARPT PTCLDY    60  52  74 E7        30.26F
N.O. LAKEFRONT CLEAR     62  51  67 E13       30.27S
N.O. DOWNTOWN* FAIR      61  48  63 NE3       30.27F
SLIDELL        CLEAR     52  48  86 CALM      30.27S
BATON ROUGE    PTCLDY    58  52  80 E9        30.27S
BOOTHVILLE     CLEAR     62  54  74 E9        30.26S
BELLE CHASSE   PTCLDY    56  50  80 E8        30.25F
BOGALUSA*        N/A     49  44  81 CALM      30.30R
NEW ROADS*     NOT AVBL
GONZALES*      NOT AVBL
HAMMOND*       NOT AVBL
HOUMA*         NOT AVBL
PORT FOURCHON* NOT AVBL

$$

LAZ041-044-053-054-220400-
SOUTHWEST LOUISIANA

CITY           SKY/WX    TMP DP  RH WIND       PRES   REMARKS
LAKE CHARLES   CLOUDY    63  52  67 SE16      30.21R
LAFAYETTE      CLOUDY    62  49  62 E5        30.25R
PATTERSON      CLEAR     55  48  76 E6        30.27S
SALT POINT       N/A     59  51  75 VRB5      30.24R
NEW IBERIA     MOCLDY    60  50  69 E9        30.25S
CHENAULT AIRPK CLOUDY    62  52  70 E13G18    30.21F

$$

LAZ027-028-220400-
CENTRAL LOUISIANA

CITY           SKY/WX    TMP DP  RH WIND       PRES   REMARKS
FORT POLK      LGT RAIN  60  53  76 SE9       30.21S
ALEXANDRIA INT CLOUDY    62  49  62 SE9       30.23R
ALEXANDRIA     CLOUDY    62  49  62 SE9       30.25R

$$

LAZ001-002-220400-
NORTHWEST LOUISIANA

CITY           SKY/WX    TMP DP  RH WIND       PRES   REMARKS
SHREVEPORT     MOCLDY    56  51  84 SE7       30.20R
BARKSDALE AFB  NOT AVBL
DTN SHREVEPORT PTCLDY    56  49  77 SE6       30.20S

$$

LAZ014-016-220400-
NORTHEAST LOUISIANA

CITY           SKY/WX    TMP DP  RH WIND       PRES   REMARKS
MONROE         CLOUDY    63  49  60 SE6       30.26R
TALLULAH       CLOUDY    57  48  72 SE7       30.28R

$$




USA.gov is the U.S. government's official web portal to all federal, state and local government web resources and services.